niederrhein-spotter.de
Homepage News Airport Weeze Airportfestival Planespotting Fotos Forum Sonstiges
 
Planespotting
· Fotopositionen
· Flugkarten
· Flugwetter
· Funkfrequenzen
 
Flugwetter
Roh-METAR
EDLV 271850Z 12007KT 9000 -RA SCT040 07/07 Q1007

Übersetzung